Powrót do katalogu

STARLINK-35960

AktywnyŁącznośćVLEO
NORAD 66531·PAYLOAD·🇺🇸 United States

Wystrzelony Nov 19, 2025 z Cape Canaveral Space Force Station

Loading…

Następne Przeloty (najbliższe 24 godziny)

TLE

ŚwieżeSource: CelesTrak SupGP

Epoka: Sep 15, 2026, 04:08 UTC

1 66531C 25265R   26258.17270833 -.00021396  00000+0 -77483-3 0  2587
2 66531  43.0008 287.5110 0001742 267.0786 186.0241 15.27594134    16

Śledź STARLINK-35960 w czasie rzeczywistym z AllMySat

Download on the App Store